TimeCST,TemperatureF,Dew PointF,Humidity,Sea Level PressureIn,VisibilityMPH,Wind Direction,Wind SpeedMPH,Gust SpeedMPH,PrecipitationIn,Events,Conditions,WindDirDegrees,DateUTC
12:52 AM,43.0,39.0,86,30.28,10.0,Calm,Calm,-,N/A,,Partly Cloudy,0,2013-11-10 06:52:00
1:52 AM,41.0,37.9,89,30.29,10.0,Calm,Calm,-,N/A,,Clear,0,2013-11-10 07:52:00
2:52 AM,39.9,37.0,89,30.30,10.0,Calm,Calm,-,N/A,,Clear,0,2013-11-10 08:52:00
3:52 AM,39.0,36.0,89,30.31,10.0,Calm,Calm,-,N/A,,Clear,0,2013-11-10 09:52:00
4:52 AM,39.0,35.1,86,30.34,8.0,Calm,Calm,-,N/A,,Clear,0,2013-11-10 10:52:00
5:52 AM,43.0,36.0,76,30.35,10.0,NE,8.1,-,N/A,,Clear,50,2013-11-10 11:52:00
6:52 AM,43.0,35.1,74,30.38,10.0,NE,6.9,-,N/A,,Clear,50,2013-11-10 12:52:00
7:52 AM,45.0,35.1,68,30.39,10.0,ENE,8.1,-,N/A,,Clear,70,2013-11-10 13:52:00
8:52 AM,50.0,33.1,52,30.39,10.0,ENE,11.5,-,N/A,,Clear,70,2013-11-10 14:52:00
9:52 AM,53.1,32.0,45,30.40,10.0,ENE,11.5,-,N/A,,Clear,70,2013-11-10 15:52:00
10:52 AM,55.9,33.1,42,30.41,10.0,ESE,6.9,-,N/A,,Clear,120,2013-11-10 16:52:00
11:52 AM,57.9,32.0,37,30.38,10.0,NE,5.8,-,N/A,,Clear,50,2013-11-10 17:52:00
12:52 PM,61.0,33.1,35,30.35,10.0,ENE,3.5,-,N/A,,Clear,70,2013-11-10 18:52:00
1:52 PM,62.1,32.0,32,30.33,10.0,Calm,Calm,-,N/A,,Clear,0,2013-11-10 19:52:00
2:52 PM,63.0,32.0,31,30.31,10.0,Calm,Calm,-,N/A,,Clear,0,2013-11-10 20:52:00
3:52 PM,63.0,30.9,30,30.31,10.0,Variable,3.5,-,N/A,,Clear,0,2013-11-10 21:52:00
4:52 PM,59.0,35.1,41,30.30,10.0,ESE,4.6,-,N/A,,Clear,110,2013-11-10 22:52:00
5:52 PM,50.0,37.9,63,30.30,10.0,Calm,Calm,-,N/A,,Clear,0,2013-11-10 23:52:00
6:52 PM,46.0,36.0,68,30.31,10.0,SSE,3.5,-,N/A,,Clear,150,2013-11-11 00:52:00
7:52 PM,45.0,36.0,71,30.31,10.0,SSE,6.9,-,N/A,,Clear,160,2013-11-11 01:52:00
8:52 PM,46.9,36.0,66,30.29,10.0,SSE,6.9,-,N/A,,Clear,150,2013-11-11 02:52:00
9:52 PM,48.0,36.0,63,30.28,10.0,SSE,9.2,-,N/A,,Clear,160,2013-11-11 03:52:00
10:52 PM,46.9,36.0,66,30.28,10.0,South,8.1,-,N/A,,Clear,170,2013-11-11 04:52:00
11:52 PM,46.0,36.0,68,30.27,10.0,SSE,8.1,-,N/A,,Clear,160,2013-11-11 05:52:00